Wind_Speed
10 9 7 7 6 5 5 4 3 2 1 1 0 0 1 2 3 4 5 6 6 7 8 9 9 10 10 9 9 8 7 7 7 7 6 6 5 4 3 3 2 2 2
10 9 8 7 6 5 5 4 3 2 2 1 1 1 1 2 2 3 4 5 6 6 7 8 9 10 10 9 9 8 8 8 7 7 7 6 6 5 4 3 2 2 1
10 10 9 8 7 6 6 5 4 3 2 2 2 2 2 1 2 3 4 5 5 6 6 8 8 9 9 9 9 8 8 7 7 7 7 6 6 5 4 4 2 1 1
11 10 9 8 7 7 7 6 5 4 4 3 3 3 3 2 1 2 3 4 5 5 6 7 8 9 9 9 9 8 8 7 7 6 6 6 6 5 5 4 3 2 0
11 10 9 8 8 8 7 6 6 6 5 4 4 3 4 3 2 2 2 3 4 5 5 6 7 8 9 9 8 8 7 7 7 6 6 6 6 6 5 4 3 2 2
11 10 10 9 8 8 8 7 7 6 6 5 4 4 4 4 3 3 2 2 3 3 4 5 5 7 7 8 8 8 8 7 7 6 6 5 5 5 5 4 4 3 3
11 10 10 9 9 8 8 7 7 6 6 6 5 5 4 4 4 4 4 3 3 3 3 4 4 5 6 6 7 7 8 7 7 6 6 6 5 5 5 5 4 5 4
11 11 10 9 8 8 8 7 7 7 7 6 6 5 5 5 5 5 5 5 4 4 3 3 3 4 5 5 6 6 7 7 7 6 7 7 6 6 6 6 6 6 6
10 10 9 8 8 8 8 7 7 7 7 7 7 6 6 6 6 6 6 5 5 5 4 4 3 4 4 5 5 6 7 7 7 7 7 7 7 6 6 7 7 7 7
8 9 9 9 8 8 8 8 8 7 8 8 7 7 7 7 7 7 7 6 6 6 5 5 5 4 4 5 6 6 7 7 8 8 8 8 7 8 8 8 8 8 8
8 9 9 9 9 9 9 9 8 8 8 8 8 8 8 8 8 8 8 8 7 7 6 6 6 6 5 6 6 7 7 8 8 9 9 9 9 9 9 9 9 10 10
8 9 9 9 9 10 10 10 9 9 9 9 9 9 9 9 9 8 8 9 9 8 8 7 7 7 7 7 8 8 8 9 9 9 9 10 10 10 11 11 11 11 12
9 9 10 10 11 11 11 11 10 10 9 9 10 10 10 10 9 9 8 9 9 9 9 9 8 9 9 9 10 10 10 11 11 11 11 11 11 12 12 13 14 14 14
9 10 11 11 11 12 12 11 11 11 10 10 10 10 10 10 9 9 9 9 9 9 10 10 10 10 11 11 11 12 12 13 13 13 13 14 14 14 15 16 16 17 17
10 11 11 12 12 12 12 12 12 11 11 11 10 10 10 10 10 10 10 10 10 11 11 11 11 12 12 12 12 13 14 14 14 15 15 16 16 17 18 19 19 20 21
10 10 11 12 12 13 13 13 13 12 12 12 11 11 12 12 11 11 11 11 11 12 12 13 13 13 13 13 14 15 15 16 16 17 18 18 19 20 21 22 23 24 25
9 10 12 13 13 13 13 13 13 13 13 13 12 12 12 12 13 13 12 12 13 13 14 15 15 14 14 15 16 17 17 18 19 19 20 21 22 23 23 24 26 27 27
10 11 12 13 14 14 14 14 14 13 14 14 14 13 13 14 14 15 15 15 15 15 16 16 16 17 17 17 18 19 19 20 21 22 23 23 24 25 27 27 28 29 30
12 12 13 13 14 14 14 14 14 14 14 15 15 15 15 15 15 16 16 17 17 17 17 18 18 19 19 20 20 21 22 22 23 24 25 26 27 28 29 30 31 32 33
13 13 13 13 14 14 14 15 15 15 16 16 17 17 17 17 17 18 18 18 19 19 20 20 20 21 22 23 23 24 24 25 26 27 28 29 30 31 32 33 34 35 36
14 14 14 14 14 15 15 16 16 17 17 18 18 18 18 19 19 19 20 20 20 21 21 22 22 23 24 25 26 26 27 28 29 30 31 32 33 34 35 36 37 38 39
15 15 15 15 15 15 16 16 17 18 18 19 19 19 20 20 21 21 21 22 23 23 23 24 24 25 26 27 28 29 30 31 32 33 34 35 37 38 38 39 40 41 41
17 17 16 16 16 16 17 17 18 19 20 21 21 21 22 22 23 23 24 24 25 25 25 26 27 28 29 30 31 32 33 34 35 36 37 38 40 40 41 42 42 43 43
19 19 18 19 19 19 20 20 20 21 22 22 23 24 24 25 25 26 27 27 28 28 29 29 30 31 32 33 35 36 37 38 39 39 40 41 42 42 43 43 44 45 46
20 20 20 20 21 21 21 21 22 23 23 24 25 25 26 27 28 28 29 30 31 32 32 33 34 35 35 37 38 39 40 41 42 42 43 43 44 44 44 45 46 47 48
22 23 23 23 23 23 23 24 24 25 25 26 27 28 28 29 30 31 32 33 34 35 36 37 37 38 39 40 41 42 42 43 44 44 44 45 45 46 47 48 49 50 50
Wind_Direction
195 196 198 202 202 202 201 198 202 199 194 189 191 17 12 11 16 21 17 13 15 21 24 24 23 24 25 27 29 32 36 37 38 38 40 42 43 46 55 70 95 118 121
197 199 199 205 208 213 217 215 213 212 213 224 238 273 321 347 10 20 18 15 21 23 25 24 25 25 28 31 34 36 38 41 39 39 38 36 40 43 44 51 64 90 116
199 202 205 213 216 224 224 224 226 220 232 248 260 267 281 310 357 17 19 20 25 28 29 28 26 27 31 33 35 38 39 39 39 39 37 38 42 42 42 44 47 59 88
204 210 211 213 220 226 229 228 230 232 236 243 256 257 257 268 311 1 13 20 24 25 27 30 28 29 31 33 34 36 38 38 39 37 36 35 35 35 32 30 30 27 28
205 209 212 216 221 227 230 234 237 238 237 240 247 250 254 258 275 310 345 360 14 21 24 26 27 29 31 32 33 32 36 38 37 36 34 30 26 24 19 16 12 6 350
207 212 215 220 225 228 233 239 237 234 234 235 236 245 259 262 260 273 297 328 348 2 15 18 21 25 28 30 31 30 31 31 29 30 31 27 23 16 5 360 353 340 325
209 212 216 222 228 234 237 238 231 228 232 235 234 241 253 266 270 269 274 284 304 321 337 355 9 14 19 22 22 25 25 23 20 20 18 12 10 8 3 356 343 329 316
210 212 218 224 229 234 234 232 231 230 235 237 237 241 251 264 271 273 273 273 282 290 300 323 341 357 3 5 7 10 11 10 11 11 7 2 357 357 356 349 337 328 322
210 212 220 223 226 230 230 230 233 233 234 236 240 245 255 264 266 270 275 276 277 278 283 290 305 322 340 347 350 353 357 358 359 357 355 352 348 343 340 338 333 325 318
215 219 224 228 230 229 233 237 235 236 239 242 246 250 257 261 265 270 270 267 266 268 272 279 282 299 319 332 336 340 345 348 347 344 341 341 340 338 335 331 327 323 316
213 217 229 234 236 236 237 237 235 240 245 247 251 255 259 261 269 271 266 263 264 267 270 275 276 284 297 310 318 324 330 332 332 332 330 329 328 328 330 326 322 318 315
219 223 230 234 238 239 238 236 237 242 247 251 256 259 260 263 270 271 266 264 264 268 270 273 274 282 289 298 305 309 314 318 321 322 321 319 318 319 321 321 319 316 314
224 229 234 238 240 243 243 239 241 245 251 255 258 260 263 264 266 270 270 263 264 269 274 275 274 283 288 291 293 297 303 306 310 313 314 314 313 312 312 312 312 310 308
230 231 235 242 245 246 245 243 244 248 251 254 258 260 262 264 264 270 271 266 265 267 273 275 282 286 288 289 289 291 296 300 303 305 307 308 309 308 308 307 306 305 304
239 236 239 245 248 249 248 245 247 249 249 251 254 257 262 265 266 267 266 264 264 267 273 279 284 285 288 290 291 290 293 295 297 300 301 303 304 305 306 305 304 303 302
245 243 245 246 248 250 249 248 249 248 249 252 255 258 263 266 266 265 263 264 266 271 276 280 283 285 287 289 290 291 292 294 296 297 298 298 299 300 302 302 302 301 301
252 251 249 247 247 249 250 250 248 248 249 253 257 261 264 267 267 266 265 267 269 273 276 279 281 281 284 288 290 291 291 292 294 296 297 298 298 299 300 300 300 300 299
260 257 253 251 249 250 251 251 251 251 252 254 259 263 265 268 269 267 267 270 273 274 276 278 279 282 285 287 289 289 291 293 295 296 297 297 298 299 300 299 299 299 299
258 257 256 253 252 252 252 252 254 256 256 257 260 262 266 268 268 269 269 271 273 276 278 280 280 283 284 286 287 288 291 293 294 295 296 297 297 299 299 299 299 298 298
258 258 257 256 254 253 253 253 255 258 259 260 262 264 266 268 269 270 271 272 274 276 279 279 280 282 284 285 287 288 290 292 294 295 295 296 297 297 298 298 297 297 298
260 259 259 259 257 256 256 256 258 260 262 263 264 266 267 268 270 271 272 274 276 277 278 279 281 283 284 285 287 289 291 292 293 294 294 295 296 296 296 297 297 297 297
258 259 260 259 259 258 258 259 260 261 263 265 266 267 268 268 270 272 273 275 276 277 278 279 281 283 284 285 287 289 291 292 293 293 294 294 295 295 296 296 297 297 297
260 259 260 262 262 264 264 263 263 264 265 266 267 268 268 270 272 274 275 276 277 278 279 280 281 282 283 285 287 289 290 291 292 293 293 294 295 295 295 296 296 297 297
261 262 262 264 265 267 267 267 266 266 266 267 269 270 271 272 274 276 277 278 278 279 280 280 281 282 283 285 286 288 289 290 292 293 294 294 295 295 295 296 296 296 297
263 264 265 266 267 267 267 268 268 268 268 269 271 272 273 274 275 277 278 279 279 280 281 281 282 283 284 285 287 288 289 290 291 292 293 293 294 294 295 296 296 296 297
265 266 267 268 269 270 270 269 269 270 271 272 272 274 275 276 277 278 279 280 280 281 282 282 283 283 284 286 287 288 289 289 290 291 292 292 293 294 295 295 296 296 297
Height
5881 5882 5883 5885 5885 5886 5886 5887 5887 5887 5887 5887 5887 5886 5886 5885 5884 5883 5881 5880 5879 5877 5875 5873 5871 5869 5867 5865 5863 5862 5861 5860 5859 5859 5858 5858 5857 5857 5857 5857 5857 5857 5857
5880 5881 5882 5884 5885 5885 5885 5886 5886 5886 5886 5886 5886 5886 5885 5885 5884 5883 5881 5880 5879 5877 5875 5874 5872 5870 5867 5865 5864 5863 5862 5861 5860 5859 5859 5858 5858 5857 5857 5857 5857 5857 5857
5878 5880 5881 5882 5883 5884 5884 5884 5885 5885 5885 5885 5885 5885 5884 5884 5883 5882 5881 5880 5879 5877 5875 5874 5872 5870 5868 5866 5865 5864 5863 5862 5861 5860 5860 5859 5858 5858 5858 5857 5857 5857 5858
5876 5878 5879 5881 5881 5882 5883 5883 5883 5883 5883 5883 5883 5883 5883 5883 5882 5882 5881 5880 5878 5877 5876 5874 5872 5871 5869 5867 5866 5864 5863 5863 5862 5861 5860 5860 5859 5859 5858 5858 5857 5857 5857
5874 5876 5878 5879 5880 5880 5881 5881 5882 5882 5882 5882 5882 5882 5881 5881 5881 5880 5880 5879 5878 5877 5875 5874 5873 5871 5869 5868 5866 5865 5864 5863 5862 5861 5861 5860 5859 5858 5858 5857 5857 5857 5857
5873 5874 5876 5877 5878 5878 5879 5879 5880 5880 5880 5880 5880 5880 5880 5879 5879 5879 5878 5877 5877 5876 5875 5874 5872 5871 5870 5868 5867 5866 5865 5864 5863 5862 5861 5860 5859 5858 5858 5857 5856 5856 5856
5871 5872 5874 5875 5876 5876 5877 5877 5878 5878 5878 5879 5879 5878 5878 5878 5877 5877 5876 5876 5875 5874 5874 5873 5872 5871 5870 5868 5867 5866 5865 5864 5863 5862 5861 5860 5859 5858 5857 5857 5856 5855 5855
5869 5870 5872 5873 5874 5874 5875 5875 5875 5876 5876 5877 5877 5876 5876 5876 5876 5875 5874 5874 5873 5872 5872 5871 5871 5870 5869 5868 5867 5866 5865 5864 5863 5862 5861 5860 5859 5858 5857 5856 5855 5854 5854
5867 5868 5870 5871 5872 5872 5873 5873 5873 5874 5874 5874 5874 5874 5874 5873 5873 5873 5872 5871 5870 5870 5869 5869 5869 5869 5868 5867 5866 5866 5864 5863 5862 5861 5860 5859 5858 5857 5856 5855 5855 5854 5853
5865 5866 5868 5869 5869 5870 5871 5871 5871 5871 5872 5872 5872 5872 5871 5870 5870 5869 5868 5868 5867 5867 5867 5867 5867 5867 5866 5866 5865 5865 5864 5863 5861 5860 5859 5858 5857 5856 5855 5854 5853 5852 5851
5863 5864 5865 5866 5867 5868 5869 5869 5869 5869 5869 5869 5869 5869 5868 5867 5866 5865 5864 5864 5864 5864 5865 5865 5865 5865 5865 5864 5864 5863 5862 5861 5860 5859 5858 5857 5855 5854 5853 5852 5851 5850 5849
5861 5862 5863 5864 5865 5866 5866 5866 5867 5867 5867 5867 5867 5866 5865 5865 5864 5862 5861 5861 5862 5862 5862 5862 5863 5863 5862 5862 5862 5861 5861 5860 5859 5857 5856 5855 5854 5852 5851 5850 5849 5847 5846
5860 5860 5861 5862 5863 5863 5864 5864 5864 5864 5864 5864 5864 5863 5863 5862 5861 5860 5859 5858 5859 5860 5860 5860 5860 5860 5860 5860 5859 5859 5858 5857 5856 5855 5854 5852 5851 5850 5849 5847 5846 5844 5843
5857 5858 5859 5859 5860 5860 5861 5861 5862 5862 5862 5861 5861 5861 5860 5859 5859 5858 5857 5856 5857 5857 5858 5858 5858 5857 5857 5857 5856 5855 5855 5854 5853 5852 5850 5849 5848 5847 5845 5844 5842 5840 5839
5855 5855 5856 5857 5857 5857 5857 5858 5858 5859 5859 5859 5858 5858 5857 5857 5856 5856 5855 5855 5855 5855 5855 5855 5855 5855 5854 5853 5852 5852 5851 5850 5849 5848 5847 5845 5844 5842 5840 5839 5837 5835 5833
5852 5853 5853 5853 5854 5854 5854 5855 5855 5856 5856 5856 5856 5855 5855 5854 5853 5853 5853 5853 5853 5853 5853 5853 5852 5851 5850 5850 5849 5848 5847 5846 5845 5843 5842 5840 5839 5837 5835 5833 5831 5829 5827
5849 5849 5850 5850 5850 5851 5851 5851 5852 5852 5852 5853 5852 5852 5852 5851 5851 5851 5850 5850 5850 5850 5849 5849 5848 5847 5847 5846 5845 5844 5842 5841 5839 5838 5836 5835 5833 5831 5829 5827 5825 5822 5819
5846 5846 5846 5846 5847 5847 5847 5848 5848 5848 5849 5849 5849 5849 5848 5848 5847 5847 5847 5846 5846 5845 5845 5844 5844 5843 5842 5841 5840 5839 5837 5836 5834 5832 5830 5828 5826 5824 5822 5820 5817 5814 5811
5842 5842 5842 5843 5843 5843 5843 5844 5844 5844 5845 5845 5845 5845 5844 5844 5844 5843 5843 5842 5841 5841 5840 5839 5839 5838 5837 5836 5834 5833 5831 5830 5828 5826 5824 5822 5819 5817 5814 5812 5809 5806 5802
5838 5838 5838 5838 5839 5839 5839 5840 5840 5840 5840 5840 5840 5840 5840 5840 5839 5839 5838 5837 5836 5836 5835 5834 5833 5832 5831 5829 5828 5826 5825 5823 5821 5819 5816 5814 5811 5808 5805 5802 5799 5796 5793
5834 5834 5834 5834 5835 5835 5835 5835 5835 5836 5836 5835 5835 5835 5835 5834 5834 5834 5833 5832 5831 5830 5829 5828 5827 5826 5824 5823 5821 5819 5817 5815 5813 5810 5808 5805 5802 5799 5796 5793 5789 5786 5782
5829 5830 5830 5830 5830 5830 5831 5831 5831 5831 5830 5830 5830 5829 5829 5829 5828 5828 5827 5826 5825 5824 5823 5821 5820 5819 5817 5815 5813 5811 5809 5807 5804 5801 5799 5795 5792 5789 5785 5782 5778 5775 5771
5825 5825 5825 5825 5825 5825 5825 5825 5826 5825 5825 5824 5824 5824 5823 5822 5822 5821 5820 5819 5818 5817 5816 5814 5813 5811 5809 5807 5805 5802 5800 5797 5794 5792 5788 5785 5781 5778 5774 5770 5766 5762 5758
5819 5819 5819 5820 5820 5819 5819 5819 5819 5819 5818 5818 5818 5817 5816 5816 5815 5814 5813 5812 5810 5809 5808 5806 5805 5803 5801 5798 5795 5793 5790 5787 5784 5781 5777 5774 5770 5766 5762 5758 5754 5749 5745
5813 5813 5813 5813 5813 5813 5813 5813 5812 5812 5811 5811 5810 5810 5809 5808 5807 5806 5805 5803 5802 5800 5798 5797 5795 5793 5791 5788 5785 5782 5779 5776 5772 5769 5765 5762 5758 5754 5750 5746 5741 5737 5732
5807 5806 5806 5807 5806 5806 5806 5806 5805 5805 5804 5803 5803 5802 5801 5800 5798 5797 5796 5794 5792 5790 5788 5786 5784 5782 5779 5776 5773 5770 5767 5763 5760 5756 5753 5749 5745 5741 5737 5733 5728 5723 5718